Flight Briefing for CMB835

Departure Arrival
Biggs Army Airfield (Fort Bliss) (KBIF)
Click to view FAA NOTAMS
Joint Base McGuire Dix Lakehurst (KWRI)
Click to view FAA NOTAMS
Departure Time Arrival Time
N/A N/A
Aircraft Distance
B767-300BDSF 1614nm
Departure METAR Arrival METAR
KBIF 271058Z AUTO 27011KT 10SM CLR 21/00 A2989 RMK AO2 SLP053 T02101000 $ KWRI 271056Z AUTO 36004KT 10SM CLR 20/13 A2990 RMK AO2 SLP124 T02020134 $
Suggested Route
CME J26 PNH IFI J8 STL J110 VHP ROD J152 HAR


View recent IFR Routes data
Notes
USTRANSCOM CONTRACT FLIGHT

Charts and Procedures

Charts for KBIF
No chart available
Charts for KWRI
No chart available

Windy.com Weather Map